• In Netherlands
  • List of Countries
  • For 7 days
  • Water Temperature
  • Satellite Maps
  • Weather Map
  • Weather Widgets
  • user-avatar
    Login

    Hourly Weather Etchmiadzin

    Today, 24 March, Friday

    Time Temperature Precipitation Wind Pressure Humidity
    00:00 +3°C° 0 mm 1 mps 686 mmHg 78%
    01:00 +3°C° 0 mm 1 mps 686 mmHg 79%
    02:00 +2°C° 0 mm 1 mps 686 mmHg 80%
    03:00 +2°C° 0 mm 1 mps 685 mmHg 83%
    04:00 +1°C° 0 mm 1 mps 686 mmHg 83%
    05:00 +1°C° 0 mm 1 mps 686 mmHg 84%
    06:00 +1°C° 0 mm 1 mps 686 mmHg 85%
    07:00 +3°C° 0 mm 1 mps 687 mmHg 79%
    08:00 +5°C° 0 mm 1 mps 687 mmHg 72%
    09:00 +8°C° 0 mm 1 mps 688 mmHg 66%
    10:00 +9°C° 0 mm 1 mps 687 mmHg 64%
    11:00 +10°C° 0 mm 1 mps 687 mmHg 61%
    12:00 +11°C° 0 mm 1 mps 687 mmHg 59%
    13:00 +12°C° 0 mm 1 mps 687 mmHg 58%
    14:00 +12°C° 0 mm 1 mps 687 mmHg 58%
    15:00 +12°C° 0 mm 1 mps 687 mmHg 57%
    16:00 +11°C° 0 mm 1 mps 687 mmHg 61%
    17:00 +9°C° 0 mm 1 mps 687 mmHg 65%
    18:00 +7°C° 0 mm 1 mps 686 mmHg 69%
    19:00 +6°C° 0 mm 1 mps 687 mmHg 71%
    20:00 +5°C° 0 mm 1 mps 687 mmHg 73%
    21:00 +4°C° 0 mm 1 mps 687 mmHg 75%
    22:00 +4°C° 0 mm 1 mps 687 mmHg 76%
    23:00 +4°C° 0 mm 1 mps 687 mmHg 77%

    Tomorrow, 25 March, Saturday

    Time Temperature Precipitation Wind Pressure Humidity
    00:00 +3°C° 0 mm 1 mps 687 mmHg 77%
    01:00 +3°C° 0 mm 1 mps 687 mmHg 78%
    02:00 +2°C° 0 mm 1 mps 687 mmHg 79%
    03:00 +1°C° 0 mm 1 mps 687 mmHg 80%
    04:00 +1°C° 0 mm 1 mps 686 mmHg 80%
    05:00 0°C° 0 mm 1 mps 686 mmHg 80%
    06:00 0°C° 0 mm 1 mps 686 mmHg 80%
    07:00 +3°C° 0 mm 1 mps 686 mmHg 74%
    08:00 +6°C° 0 mm 1 mps 687 mmHg 68%
    09:00 +9°C° 0 mm 1 mps 687 mmHg 62%
    10:00 +10°C° 0 mm 1 mps 687 mmHg 60%
    11:00 +11°C° 0 mm 1 mps 686 mmHg 58%
    12:00 +12°C° 0 mm 1 mps 686 mmHg 57%
    13:00 +13°C° 0 mm 1 mps 685 mmHg 56%
    14:00 +13°C° 0 mm 1 mps 685 mmHg 55%
    15:00 +13°C° 0 mm 1 mps 684 mmHg 54%
    16:00 +11°C° 0 mm 1 mps 684 mmHg 57%
    17:00 +9°C° 0 mm 1 mps 683 mmHg 61%
    18:00 +7°C° 0 mm 1 mps 683 mmHg 64%
    19:00 +6°C° 0 mm 1 mps 683 mmHg 66%
    20:00 +5°C° 0 mm 1 mps 683 mmHg 67%
    21:00 +4°C° 0 mm 1 mps 683 mmHg 69%
    22:00 +4°C° 0 mm 1 mps 683 mmHg 69%
    23:00 +4°C° 0 mm 1 mps 683 mmHg 69%

    Day after tomorrow, 26 March, Sunday

    Time Temperature Precipitation Wind Pressure Humidity
    00:00 +3°C° 0 mm 1 mps 683 mmHg 69%
    01:00 +3°C° 0 mm 1 mps 683 mmHg 69%
    02:00 +3°C° 0 mm 1 mps 683 mmHg 69%
    03:00 +2°C° 0 mm 1 mps 683 mmHg 69%
    04:00 +2°C° 0 mm 1 mps 683 mmHg 69%
    05:00 +2°C° 0 mm 1 mps 683 mmHg 69%
    06:00 +2°C° 0 mm 1 mps 683 mmHg 69%
    07:00 +5°C° 0 mm 1 mps 684 mmHg 64%
    08:00 +7°C° 0 mm 1 mps 684 mmHg 59%
    09:00 +10°C° 0 mm 1 mps 684 mmHg 55%
    10:00 +11°C° 0 mm 1 mps 684 mmHg 52%
    11:00 +12°C° 0 mm 1 mps 684 mmHg 50%
    12:00 +13°C° 0 mm 1 mps 684 mmHg 48%
    13:00 +13°C° 0 mm 1 mps 684 mmHg 48%
    14:00 +14°C° 0 mm 1 mps 684 mmHg 48%
    15:00 +14°C° 0 mm 1 mps 683 mmHg 47%
    16:00 +12°C° 0 mm 1 mps 683 mmHg 51%
    17:00 +11°C° 0 mm 1 mps 683 mmHg 54%
    18:00 +9°C° 0 mm 1 mps 683 mmHg 57%
    19:00 +8°C° 0 mm 1 mps 684 mmHg 58%
    20:00 +7°C° 0 mm 1 mps 684 mmHg 59%
    21:00 +6°C° 0 mm 1 mps 685 mmHg 60%
    22:00 +6°C° 0 mm 1 mps 685 mmHg 61%
    23:00 +5°C° 0 mm 1 mps 685 mmHg 61%

    27 March, Monday

    Time Temperature Precipitation Wind Pressure Humidity
    00:00 +5°C° 0 mm 1 mps 685 mmHg 62%
    01:00 +5°C° 0 mm 1 mps 684 mmHg 63%
    02:00 +4°C° 0 mm 1 mps 684 mmHg 64%
    03:00 +4°C° 0 mm 1 mps 684 mmHg 65%
    04:00 +4°C° 0 mm 1 mps 684 mmHg 65%
    05:00 +4°C° 0 mm 1 mps 684 mmHg 65%
    06:00 +4°C° 0 mm 1 mps 684 mmHg 65%
    07:00 +6°C° 0 mm 1 mps 685 mmHg 61%
    08:00 +7°C° 0 mm 2 mps 685 mmHg 56%
    09:00 +10°C° 0 mm 2 mps 685 mmHg 52%
    10:00 +12°C° 0 mm 2 mps 685 mmHg 51%
    11:00 +13°C° 0 mm 2 mps 684 mmHg 51%
    12:00 +13°C° 0 mm 3 mps 684 mmHg 51%
    13:00 +13°C° 0 mm 3 mps 683 mmHg 50%
    14:00 +14°C° 0 mm 3 mps 683 mmHg 50%
    15:00 +14°C° 0 mm 3 mps 683 mmHg 50%
    16:00 +13°C° 0 mm 3 mps 683 mmHg 54%
    17:00 +13°C° 0 mm 2 mps 683 mmHg 58%
    18:00 +10°C° 0 mm 2 mps 683 mmHg 62%
    19:00 +9°C° 0 mm 2 mps 683 mmHg 63%
    20:00 +9°C° 0 mm 2 mps 683 mmHg 65%
    21:00 +8°C° 0 mm 2 mps 683 mmHg 67%
    22:00 +8°C° 0.1 mm 2 mps 683 mmHg 68%
    23:00 +7°C° 0.1 mm 2 mps 683 mmHg 69%

    28 March, Tuesday

    Time Temperature Precipitation Wind Pressure Humidity
    00:00 +7°C° 0.1 mm 2 mps 683 mmHg 70%
    01:00 +7°C° 0.1 mm 2 mps 683 mmHg 71%
    02:00 +7°C° 0.1 mm 2 mps 682 mmHg 72%
    03:00 +7°C° 0.1 mm 2 mps 682 mmHg 73%
    04:00 +6°C° 0.1 mm 2 mps 682 mmHg 74%
    05:00 +6°C° 0.1 mm 2 mps 682 mmHg 75%
    06:00 +6°C° 0.1 mm 2 mps 682 mmHg 75%
    07:00 +8°C° 0.1 mm 2 mps 682 mmHg 70%
    08:00 +9°C° 0.1 mm 3 mps 681 mmHg 64%
    09:00 +11°C° 0.1 mm 3 mps 681 mmHg 59%
    10:00 +12°C° 0.2 mm 3 mps 681 mmHg 56%
    11:00 +13°C° 0.2 mm 3 mps 681 mmHg 54%
    12:00 +14°C° 0.2 mm 3 mps 681 mmHg 52%
    13:00 +14°C° 0.2 mm 3 mps 681 mmHg 52%
    14:00 +16°C° 0.2 mm 3 mps 681 mmHg 52%
    15:00 +16°C° 0.2 mm 3 mps 681 mmHg 52%
    16:00 +14°C° 0.2 mm 3 mps 681 mmHg 57%
    17:00 +13°C° 0.2 mm 2 mps 681 mmHg 62%
    18:00 +12°C° 0.2 mm 2 mps 682 mmHg 67%
    19:00 +10°C° 0.3 mm 2 mps 682 mmHg 70%
    20:00 +10°C° 0.3 mm 1 mps 683 mmHg 74%
    21:00 +10°C° 0.3 mm 1 mps 683 mmHg 77%
    22:00 +9°C° 0.4 mm 1 mps 683 mmHg 78%
    23:00 +9°C° 0.4 mm 1 mps 684 mmHg 79%

    29 March, Wednesday

    Time Temperature Precipitation Wind Pressure Humidity
    00:00 +9°C° 0.4 mm 1 mps 684 mmHg 80%
    01:00 +8°C° 0.3 mm 1 mps 684 mmHg 81%
    02:00 +8°C° 0.3 mm 1 mps 684 mmHg 81%
    03:00 +7°C° 0.3 mm 1 mps 684 mmHg 82%
    04:00 +6°C° 0.1 mm 1 mps 684 mmHg 82%
    05:00 +6°C° 0.1 mm 1 mps 684 mmHg 83%
    06:00 +5°C° 0.1 mm 1 mps 685 mmHg 83%
    07:00 +6°C° 0 mm 1 mps 685 mmHg 75%
    08:00 +8°C° 0 mm 1 mps 686 mmHg 67%
    09:00 +9°C° 0 mm 2 mps 686 mmHg 60%
    10:00 +10°C° 0 mm 2 mps 686 mmHg 56%
    11:00 +12°C° 0 mm 2 mps 686 mmHg 53%
    12:00 +13°C° 0 mm 2 mps 686 mmHg 49%
    13:00 +13°C° 0 mm 2 mps 686 mmHg 48%
    14:00 +14°C° 0 mm 2 mps 686 mmHg 47%
    15:00 +14°C° 0 mm 2 mps 685 mmHg 46%
    16:00 +13°C° 0 mm 2 mps 686 mmHg 50%
    17:00 +10°C° 0 mm 2 mps 686 mmHg 53%
    18:00 +9°C° 0 mm 2 mps 686 mmHg 57%
    19:00 +8°C° 0 mm 2 mps 686 mmHg 59%
    20:00 +7°C° 0 mm 2 mps 687 mmHg 61%
    21:00 +6°C° 0 mm 2 mps 687 mmHg 63%
    22:00 +6°C° 0 mm 1 mps 688 mmHg 64%
    23:00 +5°C° 0 mm 1 mps 688 mmHg 65%
    Show more